DELTA 1 DEB, 14905

Orbit data source: Space-Track

DELTA 1 DEB, 14905 is space debris in SSO originally from a launch on Thu, 29 Jul 1976 UTC launched from the Air Force Western Test Range (AFWTR). Debris objects in space refer to the collection of defunct objects orbiting the Earth. Examples of debris include non-operational satellites, rocket bodies, and fragments generated from explosions, collisions, or faulty payload assembly.

Loading next visibility...
Identifier
14905, 1976-077ET
Orbit
SSO
Country
Flag of USUS
Related business
Manufacturer
Unknown
Mission
Spacecraft
Bus & Motor
Unknown
Mass
Unknown
Launch date (UTC)
1976-07-29 (50 years ago)
Launch vehicle
Unknown
Launch site
Air Force Western Test Range (AFWTR)
Object type
Payload
Rocket body
Debris
Shape & HBR
Unknown shape, 0.1 m
Radar Cross Section
Small (<0.1 m²)

Expand to show TLE details & history
Last TLE update: 6 hours ago

TLE from 6 hours ago
0 DELTA 1 DEB
1 14905U 76077ET  26034.17127569  .00000184  00000-0  24387-2 0  9998
2 14905 102.2772  97.2507 0184559 241.0325 144.6095 12.07373163902183
Epoch: 2026-02-03T04:06Z
TLE epoch observation values (Epoch: 2026-02-03T04:06:38.219Z)
Latitude
26.21518°
Longitude
-103.88662°
Altitude
1,772.513 km
Speed
6.943 km/s
True Right ascension
06h 04m 30s
True Declination
26° 05' 46"
Sunlit
Object was in full shadow at epoch
Visualization orbit readout
Latitude
Unknown
Longitude
Unknown
Altitude
Unknown
Speed
Unknown
Apparent Right ascension
Unknown
Apparent Declination
Unknown
Sunlit
N/A
Visualization observer readout
Local Sidereal Time
11:42:00
Azimuth
Unknown
Elevation
Unknown
Doppler factor
Unknown
Orbital elements
Apogee altitude
1,793.736 km
Perigee altitude
1,497.564 km
Semi-major axis
8,023.787 km
Eccentricity
0.01846
Inclination
102.2772°
RAAN
97.2507°
Arg. of periapsis
241.0325°
True anomaly
145.81162°
Mean anomaly
144.6095°
Eccentric anomaly
145.2128°
Mean motion
3.01977 °/min
Orbital period
119.21 mins
BSTAR
0.0024387
Loading maneuver chart data...
Computing Atmospheric mass density...
Loading historical data...
Loading historical data...
Loading historical data...
Loading historical data...
Loading historical data...
Loading historical data...
Loading historical data...

Documentation

Showing up to 5 results
|